Location: Unspecified
(42.2600°N, 0.0000°E)
Time: 21:59:00
(UTC+00:00)

ISS - Pass Details

Date: 30 May 2019
Orbit: 407 x 418 km, 51.6° (Epoch: 20 June)

Event Time Altitude Azimuth Distance (km) Brightness Sun altitude
Rises 22:04:30 0° 304° (NW) 2,358 1.1 -20.8°
Reaches altitude 10° 22:06:36 10° 305° (NW) 1,495 -0.1 -21.0°
Enters shadow 22:09:36 69° 317° (NW) 451 -3.5 -21.2°
